Theta_e
288 287 287 287 286 286 285 285 286 286 285 285 285 285 284 284 283 283 283 282 282 281 280 280 279 279 279 278 278 277 277 276 276 276 276 275 275 275 275 274 274 274 274 273 273 273 273 273 273 272 272 272 272 272 272 272 272 272 272 272 272 271 271 271 270 271 272 272 270 270 270 270 270 271 271 271 270 270 270 270 270 270 270 270 271
288 287 286 286 286 285 284 284 284 285 284 284 285 284 284 283 283 282 282 282 281 280 280 279 279 279 279 278 277 277 276 276 276 276 275 275 275 275 274 274 274 274 273 273 273 272 272 272 272 272 271 271 271 271 271 271 271 271 271 271 270 270 270 270 270 270 271 271 270 270 270 270 270 270 269 269 269 270 269 269 269 269 270 270 270
289 287 286 286 286 285 284 283 283 283 283 283 283 283 283 282 282 281 281 281 280 280 279 279 278 279 279 278 277 276 276 275 275 275 275 275 274 274 274 274 274 273 273 273 272 272 272 272 271 271 271 271 271 271 270 270 270 270 270 270 270 270 269 269 270 270 269 269 270 270 269 269 269 269 268 268 269 269 269 269 269 269 269 269 270
288 287 286 286 285 285 284 283 283 282 282 282 281 281 281 281 281 281 280 280 279 279 279 278 278 278 278 278 277 276 275 275 275 275 274 274 274 274 274 274 273 273 273 273 272 272 271 271 271 270 270 270 270 270 270 270 270 269 269 269 269 270 269 269 269 269 269 269 269 269 268 268 268 268 268 268 269 269 269 269 269 270 270 269 269
288 287 286 285 285 285 284 283 282 282 282 282 281 280 280 279 279 279 279 279 278 278 278 278 277 278 278 278 277 276 275 274 274 274 274 274 274 273 273 273 273 273 272 272 272 271 271 271 270 270 270 270 270 270 269 269 269 269 269 269 269 269 269 269 269 269 269 268 268 268 267 267 267 267 267 268 268 269 269 269 270 270 270 270 269
288 287 286 285 285 284 284 283 282 282 282 281 281 280 279 278 278 278 278 278 278 278 277 277 277 277 278 277 277 275 274 274 274 273 273 273 273 273 273 272 272 272 272 272 271 271 271 270 270 270 270 270 270 269 269 268 268 268 268 268 268 268 268 268 268 268 268 268 267 267 267 267 267 267 266 266 267 267 268 270 270 269 269 270 270
287 286 285 284 284 284 284 283 283 282 281 280 279 279 278 277 277 277 277 277 277 278 277 276 276 277 277 277 276 275 274 273 273 273 273 273 272 272 272 272 272 272 271 271 271 270 270 270 270 269 269 269 269 268 268 267 267 267 267 267 267 267 267 267 267 267 267 267 266 266 266 266 265 265 265 266 266 265 265 266 268 268 268 268 268
287 286 285 284 283 283 283 283 282 282 281 280 279 279 278 277 277 277 277 276 277 277 276 275 276 276 276 276 275 275 274 273 272 272 272 272 272 271 271 271 271 271 271 270 270 270 270 269 269 269 269 268 268 267 267 267 267 267 267 266 267 267 267 267 267 267 266 266 266 265 265 265 265 265 265 265 265 264 263 262 263 265 266 267 267
286 285 284 284 283 283 282 282 282 281 281 280 279 279 278 277 276 276 276 276 276 276 276 275 275 275 276 275 275 274 273 272 272 271 271 271 271 271 271 270 270 270 270 270 269 269 269 269 268 268 268 267 267 266 266 266 266 266 266 266 266 266 266 266 266 266 265 265 265 264 264 264 264 263 264 263 262 262 262 262 261 262 263 266 267
286 285 284 284 283 282 281 281 281 281 281 281 280 279 278 277 276 276 275 275 275 275 275 275 274 274 275 275 274 273 273 272 271 270 270 270 270 270 270 270 269 269 269 269 268 268 268 268 268 267 267 266 266 266 265 265 265 265 265 265 265 266 265 265 265 265 264 264 263 263 263 263 263 262 262 262 262 262 262 262 262 262 262 264 266
285 285 284 283 282 281 280 280 280 281 281 280 280 279 278 276 276 275 275 275 275 275 274 274 274 274 274 274 274 273 272 271 270 270 269 269 269 269 269 269 269 269 268 268 268 268 268 268 267 267 266 266 266 265 265 265 265 265 265 265 265 264 264 264 264 263 263 263 262 262 262 262 262 262 262 263 262 262 262 262 262 262 261 260 262
284 284 283 282 281 280 279 279 279 280 280 280 280 279 278 276 275 275 275 275 274 274 274 273 273 273 273 274 273 272 272 271 270 269 269 268 268 268 268 268 268 268 268 268 267 267 267 267 267 267 266 266 266 265 265 265 265 265 265 264 264 264 263 263 263 263 263 262 262 262 262 262 262 263 263 263 263 262 262 263 262 261 261 260 259
283 283 282 281 280 279 279 278 279 279 279 280 280 279 278 277 276 275 274 274 273 274 274 273 273 273 273 273 272 272 272 271 270 270 269 269 269 269 269 268 268 268 268 267 267 267 267 267 267 267 266 266 265 265 265 264 264 264 264 264 264 263 263 263 263 263 262 262 262 262 262 262 262 263 263 263 263 263 263 262 262 261 261 260 260
282 281 281 280 279 279 278 278 278 278 278 278 279 278 278 277 276 275 274 273 273 273 273 273 273 273 272 272 272 272 271 271 270 270 269 270 270 269 269 269 268 268 268 267 267 267 267 267 267 266 266 265 265 265 264 264 264 264 264 264 264 263 263 263 263 263 262 262 262 262 262 262 262 263 263 263 263 263 263 262 262 261 261 261 261
280 279 279 279 278 278 277 277 277 277 277 277 277 278 278 277 276 275 274 273 273 273 273 273 273 272 272 271 271 271 271 270 270 270 269 270 271 270 270 269 269 269 268 268 267 267 267 267 267 266 266 265 265 264 264 264 264 264 264 264 264 264 263 263 263 263 263 262 262 262 262 262 263 263 263 264 264 263 263 262 261 261 260 261 262
278 277 277 277 277 277 277 276 276 276 276 276 276 277 277 277 276 275 273 273 273 273 273 273 273 272 272 271 270 271 271 270 270 270 269 270 271 271 270 270 269 269 268 268 267 267 267 267 267 266 266 265 265 264 264 264 264 263 263 263 264 264 263 263 263 263 263 262 262 262 262 262 263 263 264 264 263 263 262 261 261 261 260 259 260
276 276 276 275 276 276 276 276 276 276 276 275 275 276 276 277 276 275 273 273 273 273 272 272 272 272 272 271 270 271 271 270 270 270 270 270 271 271 271 270 270 269 269 268 268 267 267 267 266 266 266 265 265 264 264 263 263 263 263 263 264 264 264 264 264 263 263 263 263 263 263 263 263 263 263 263 262 262 261 261 261 260 259 258 258
274 274 275 274 274 274 274 274 274 274 274 274 274 275 275 276 275 274 273 273 272 272 272 272 272 271 271 271 270 271 271 270 270 270 270 270 270 270 271 270 270 270 269 268 268 267 267 267 266 266 266 265 265 264 264 263 263 263 264 264 264 264 264 264 264 264 264 264 263 263 263 263 263 263 263 262 262 261 261 261 260 260 259 258 257
273 273 273 273 273 273 272 272 273 272 273 273 274 274 274 274 274 273 272 272 272 272 271 271 271 271 271 270 270 270 270 270 269 269 270 270 269 269 270 270 270 270 269 268 268 268 267 267 266 266 266 265 265 264 264 263 264 264 264 264 264 264 264 264 264 264 264 264 264 264 264 263 263 263 263 262 262 261 260 260 260 259 259 258 258
271 271 272 272 272 272 271 271 271 271 272 272 272 273 273 273 273 273 272 272 272 271 271 270 270 271 270 270 270 270 270 270 270 269 269 269 269 268 269 270 270 269 269 269 268 268 267 267 266 266 265 265 264 264 264 264 264 265 264 264 264 264 263 263 263 263 263 263 263 264 264 264 263 263 263 262 262 261 261 260 260 259 259 258 258
270 271 271 271 271 272 271 271 271 271 271 272 272 272 273 273 273 272 272 271 271 270 270 270 270 270 270 270 269 269 269 269 269 269 268 269 269 268 268 269 269 269 269 269 268 268 267 267 266 265 265 265 264 264 264 265 265 265 265 264 264 263 263 263 262 262 262 263 263 263 263 263 263 263 263 262 262 261 261 261 260 259 259 258 259
269 270 271 271 271 271 271 271 271 271 271 271 272 272 272 272 272 271 271 270 270 269 269 269 269 269 269 269 269 269 269 268 268 268 268 268 268 268 268 269 269 269 269 268 268 267 267 266 266 265 265 265 264 264 264 265 265 265 264 264 264 263 263 262 262 262 262 263 263 263 263 263 263 263 263 262 262 262 262 261 261 260 260 259 259
269 269 270 270 270 270 270 271 271 271 271 271 271 271 271 270 270 270 270 269 269 268 269 269 268 268 268 269 268 268 268 268 268 268 268 267 268 268 269 269 269 269 268 268 267 267 266 266 265 265 264 264 264 264 263 264 264 264 264 264 263 263 263 262 262 262 263 263 263 263 263 263 262 262 262 262 262 262 261 261 261 261 260 260 260
269 269 269 269 270 270 270 270 270 270 270 270 270 270 270 269 269 269 269 268 268 268 268 268 268 268 268 268 268 268 268 268 268 267 267 267 268 268 268 268 269 268 268 267 267 266 266 265 265 264 264 264 264 263 263 263 264 264 263 263 263 262 262 262 263 263 263 263 263 263 263 262 261 261 261 261 261 261 261 261 262 261 261 261 261
268 268 268 268 268 269 269 269 269 269 269 269 269 269 269 268 268 268 268 267 267 267 267 267 267 267 267 267 267 268 267 267 267 267 267 267 267 268 268 267 267 267 267 266 266 265 265 265 264 264 263 263 263 263 263 263 263 263 263 263 262 262 262 262 262 262 262 262 262 262 262 261 261 261 261 261 261 261 261 261 262 262 261 261 262
266 267 267 267 267 268 268 268 268 268 268 268 268 268 267 267 267 267 267 267 267 266 266 266 266 266 266 266 267 267 267 267 267 267 267 267 267 267 267 267 267 266 266 266 265 265 264 264 264 264 263 263 263 263 263 263 262 262 262 262 262 262 262 262 262 262 262 262 261 261 261 261 261 260 260 260 261 261 261 261 261 262 261 261 261
265 266 266 267 267 267 266 267 267 267 267 267 267 267 267 267 266 266 266 266 266 266 266 266 266 266 266 266 266 267 267 267 267 267 267 267 267 267 267 266 266 266 265 265 265 264 264 264 263 263 263 262 262 262 262 262 263 262 262 262 262 263 262 262 262 262 262 262 261 261 261 260 260 260 260 260 261 261 260 260 260 260 260 259 259
264 264 265 265 265 265 266 266 266 266 266 266 266 266 266 266 266 266 266 266 266 266 266 266 266 266 266 266 266 266 266 266 266 266 266 266 266 266 266 266 266 265 265 265 265 264 264 263 263 263 262 262 262 262 262 262 262 262 263 263 263 263 262 262 262 262 262 261 261 261 260 260 260 260 259 260 261 261 260 260 259 259 258 258 257
263 263 263 263 264 264 264 264 265 265 265 265 266 266 266 266 266 266 266 266 266 266 266 265 266 266 266 265 265 265 265 266 266 266 266 266 266 266 266 266 266 265 265 265 264 264 264 263 263 263 262 262 262 262 262 262 262 262 263 263 263 263 262 262 262 262 262 261 261 260 260 260 259 259 259 260 261 261 260 259 259 258 258 257 256
262 262 262 262 262 262 262 263 263 264 264 264 265 265 265 265 265 265 265 265 265 265 266 266 266 265 265 265 265 264 264 264 265 265 265 265 265 265 265 265 265 265 265 265 264 264 263 263 263 263 262 262 262 262 262 262 262 262 263 263 263 263 262 262 262 262 261 261 261 260 260 259 259 259 259 259 260 260 260 259 258 258 257 256 255
261 261 261 261 261 261 261 262 262 263 263 264 264 264 264 264 264 265 265 265 265 265 265 265 265 265 265 265 264 264 264 264 264 264 264 264 264 265 265 265 265 265 265 265 264 264 263 263 263 263 263 262 262 263 262 262 262 262 262 263 263 262 262 262 262 262 261 261 261 260 260 259 258 258 258 258 259 259 259 259 258 257 257 256 255
259 260 260 260 260 260 261 261 261 261 262 262 263 263 263 263 263 263 264 264 264 264 264 264 264 264 264 264 264 264 264 264 263 263 263 264 264 264 264 264 264 264 265 264 264 264 263 263 263 263 263 262 262 262 262 262 262 262 262 262 262 262 262 262 262 261 261 261 260 260 259 259 258 258 258 258 258 258 258 258 258 257 256 256 255
259 259 259 259 259 259 260 260 260 260 260 261 261 261 261 261 261 262 262 262 262 263 263 263 263 263 263 263 263 263 264 264 264 263 263 263 263 263 264 264 264 264 264 264 264 263 263 263 263 262 262 262 262 262 262 262 262 262 262 262 262 262 262 262 262 261 261 260 260 259 259 258 258 258 258 258 257 257 257 257 257 257 256 255 255
259 259 259 259 258 258 259 259 259 259 259 260 260 260 261 261 261 261 261 261 261 262 262 262 262 262 262 262 262 262 263 263 263 263 263 263 263 263 263 263 263 263 263 263 263 263 263 263 262 262 262 262 262 262 262 261 261 261 261 262 262 262 262 262 261 261 261 260 260 259 258 258 258 258 257 257 257 257 257 257 257 256 255 254 254
259 259 259 258 258 258 258 258 258 259 259 259 260 260 260 260 261 261 261 261 261 261 261 261 261 261 261 261 261 261 262 262 262 263 263 263 263 263 263 263 263 263 263 263 263 263 263 262 262 262 262 262 262 262 261 261 261 261 261 262 262 262 262 261 261 261 260 260 259 259 258 258 258 257 257 257 257 256 256 257 256 256 255 254 254
259 259 259 258 258 258 258 258 258 259 259 259 259 259 260 260 260 260 260 260 260 260 260 260 260 260 261 261 261 261 261 261 261 262 262 262 262 262 262 262 262 262 262 262 262 262 262 262 262 262 262 262 262 262 262 261 261 261 261 261 261 261 261 261 261 260 260 260 259 259 258 258 258 257 257 256 256 256 256 256 256 255 255 254 254
259 259 259 258 258 258 258 258 258 258 258 259 259 259 259 259 259 259 259 259 260 260 260 260 260 260 260 260 260 260 260 260 260 261 261 261 261 261 261 261 261 261 261 261 261 262 262 262 262 262 262 262 262 262 262 261 261 261 261 261 261 261 261 261 260 260 259 259 259 258 258 258 258 257 256 256 256 257 257 256 255 255 255 255 254
259 258 258 258 258 257 257 258 258 258 258 258 258 258 259 259 259 259 259 259 259 259 259 259 259 259 259 259 259 259 259 259 259 260 260 260 260 260 260 260 260 260 260 260 260 261 261 262 262 262 262 262 262 262 262 262 261 261 261 261 261 261 260 260 260 259 259 259 258 258 258 257 257 257 256 256 256 257 256 256 255 255 255 255 254
259 259 259 258 258 257 257 257 257 257 257 257 258 258 258 258 258 258 258 258 258 258 258 258 258 258 258 258 258 258 258 259 259 259 259 259 259 259 258 258 259 259 259 260 260 260 261 261 261 262 262 262 262 262 262 262 261 261 261 261 261 260 260 260 259 259 259 258 258 258 257 257 257 257 256 256 256 256 256 256 255 255 254 255 254
259 259 259 258 258 257 257 257 257 257 257 257 257 257 257 257 257 257 257 257 257 257 257 257 257 258 258 258 258 258 258 258 258 258 258 258 258 258 258 258 258 258 259 259 260 260 261 261 261 261 261 262 262 262 262 262 261 261 261 261 260 260 260 259 259 259 258 258 258 257 257 257 257 257 257 257 257 256 256 256 256 255 255 254 254
258 258 258 258 258 257 257 257 256 256 256 256 256 256 256 256 256 256 256 257 257 257 257 257 257 257 257 257 257 258 258 258 258 258 258 258 258 258 258 258 258 258 258 259 259 260 260 261 261 261 261 261 261 261 261 261 261 261 260 260 260 260 259 259 259 258 258 258 257 257 257 257 257 257 257 257 257 257 256 256 256 256 255 254 253
257 257 258 258 257 257 257 256 256 256 256 256 256 256 256 256 256 256 256 256 256 257 257 257 257 257 257 257 257 257 257 257 257 257 257 257 257 257 257 257 257 258 258 258 259 259 259 260 260 261 261 261 261 261 261 261 260 260 260 260 259 259 259 258 258 258 258 257 257 257 257 257 257 257 257 257 257 257 257 257 257 256 255 254 253
257 257 257 257 257 256 256 256 256 255 255 255 255 255 256 256 256 256 256 256 256 256 256 256 256 256 256 256 257 257 257 257 257 257 257 257 257 257 257 257 257 257 257 258 258 258 259 259 259 260 260 260 260 260 260 260 259 259 259 259 259 258 258 258 258 258 257 257 257 257 257 257 257 257 257 257 257 257 257 257 257 256 255 254 253
256 256 257 257 257 256 256 256 255 255 255 255 255 255 255 255 255 255 256 256 256 256 256 256 256 256 256 256 256 256 257 257 257 257 257 257 257 257 257 257 257 257 257 257 257 258 258 258 258 259 259 259 259 259 259 259 259 259 258 258 258 258 258 258 258 257 257 257 257 257 257 257 257 257 257 258 257 257 257 257 256 256 255 254 253
256 256 257 257 256 256 256 256 255 255 255 255 255 255 255 255 255 255 255 255 255 255 256 256 256 256 256 256 256 256 256 256 256 256 257 257 257 257 257 257 257 257 257 257 257 257 257 257 257 258 258 258 258 258 258 258 258 258 258 258 258 257 258 258 257 257 257 257 257 257 257 257 257 257 258 258 257 257 257 257 256 255 254 254 253
255 256 256 256 256 256 256 255 255 254 254 254 254 254 255 255 255 255 255 255 255 255 255 255 256 256 256 256 256 256 256 256 256 256 256 256 256 256 256 256 256 256 256 256 256 256 256 256 256 257 257 257 257 257 257 257 257 257 257 257 257 257 258 257 257 257 257 257 257 257 257 257 257 258 258 258 257 257 257 257 256 255 254 253 253
255 255 256 256 255 255 255 255 254 254 254 254 254 254 254 254 254 254 254 254 255 255 255 255 255 255 255 255 255 255 255 255 255 256 256 256 256 256 256 256 256 256 256 256 256 256 256 256 256 256 256 257 257 257 257 257 257 257 257 257 258 258 258 257 257 257 257 257 257 257 257 257 257 258 258 257 257 257 257 257 256 255 254 253 253
255 255 255 255 255 255 255 254 254 254 254 254 254 254 254 254 254 254 254 254 254 254 255 255 255 255 255 255 255 255 255 255 255 255 255 255 255 256 256 256 256 256 256 256 256 256 255 256 256 256 256 256 256 256 256 257 257 257 257 258 258 258 258 257 257 257 257 257 257 257 257 257 258 258 258 258 257 257 257 257 256 255 254 253 253
255 255 255 255 255 255 254 254 254 254 253 253 253 253 253 254 254 254 254 254 254 254 254 254 254 254 254 255 255 255 255 255 255 255 255 255 255 255 255 255 255 255 255 255 255 255 255 255 256 256 256 256 256 256 256 257 257 257 258 258 258 258 258 257 257 257 257 257 257 257 257 258 258 258 258 258 258 257 257 256 256 255 254 254 253
255 255 255 255 255 255 254 254 254 254 253 253 253 253 253 253 253 254 254 254 254 254 254 254 254 254 254 254 254 254 254 254 255 254 254 255 255 255 255 255 255 255 255 255 255 255 255 255 256 256 256 256 256 256 256 256 257 257 258 258 258 258 257 257 257 257 257 257 257 257 258 258 258 258 258 258 258 257 257 256 256 255 254 254 254
255 255 255 255 255 254 254 254 254 254 253 253 253 253 253 253 253 253 253 253 253 254 254 254 254 254 254 254 254 254 254 254 254 254 254 254 254 254 254 254 254 254 255 255 255 255 255 255 256 256 256 256 256 256 256 256 257 257 257 257 257 258 258 258 257 257 257 257 258 258 258 258 258 258 258 258 258 257 257 256 256 255 254 254 254
Wind_Speed
24 23 22 20 20 19 17 15 13 12 11 9 7 5 4 3 2 2 2 3 3 3 3 4 4 5 5 5 5 4 4 5 5 5 5 5 6 6 6 5 5 5 5 5 6 6 6 6 6 6 6 6 6 5 4 4 4 4 4 3 5 5 5 5 3 5 7 9 10 12 13 15 17 19 22 23 22 21 20 19 18 18 18 19 17
25 25 23 22 21 20 18 17 15 14 13 11 9 7 5 4 3 2 2 2 3 3 3 3 3 4 5 5 5 4 4 4 4 4 5 5 5 5 4 4 4 4 4 4 5 5 5 5 5 6 6 5 5 5 5 5 5 4 4 4 5 6 6 7 6 4 7 10 10 12 14 15 18 20 22 23 23 21 20 18 17 16 17 18 17
25 25 24 23 23 22 20 19 18 16 14 12 10 8 6 4 3 3 3 2 2 3 3 3 3 4 5 5 4 4 4 4 4 4 4 4 4 4 3 4 3 3 4 4 4 5 4 4 5 5 5 4 5 5 6 6 5 5 5 5 4 5 5 6 6 5 7 10 11 12 15 16 17 20 21 21 21 20 19 19 16 15 16 17 17
24 26 26 25 24 23 23 21 20 18 15 13 11 9 7 5 4 4 3 3 3 3 3 3 3 4 5 4 4 4 4 4 4 3 3 3 3 3 3 3 3 3 3 3 3 3 3 4 4 4 4 4 4 5 6 6 6 6 6 5 4 4 5 5 6 5 5 8 10 12 14 15 16 18 20 21 20 19 19 19 17 16 16 17 18
25 26 27 27 26 25 25 23 21 20 17 14 12 10 8 6 5 4 4 4 3 3 3 3 3 4 5 4 4 4 4 4 3 3 3 3 3 3 3 2 2 2 2 2 2 2 3 3 4 4 4 4 4 5 6 6 7 6 6 6 6 6 5 4 5 4 5 8 10 11 13 15 16 18 19 22 23 21 21 19 18 19 19 18 18
25 26 27 28 28 27 27 25 23 21 18 15 13 12 10 8 6 5 5 4 4 4 4 3 3 4 5 5 4 4 4 4 4 4 3 3 3 3 3 3 2 2 2 2 2 2 3 3 3 3 3 4 4 5 6 6 6 7 7 7 7 7 6 5 5 5 6 8 10 12 14 15 18 19 20 22 22 23 25 25 23 24 23 22 21
25 26 27 29 29 29 28 26 24 22 20 16 14 13 11 9 8 7 6 5 4 5 5 4 4 4 5 5 4 4 4 4 4 4 4 3 3 3 3 3 3 2 2 2 1 1 2 2 2 2 3 3 4 5 5 6 6 7 7 8 8 7 7 7 6 6 8 10 11 13 14 15 17 19 20 22 20 21 27 29 29 30 29 28 26
26 26 27 29 30 31 29 27 25 23 21 17 15 15 13 10 9 8 7 6 5 5 5 5 5 5 6 6 5 5 4 5 5 4 4 4 3 3 3 3 3 3 2 2 2 1 1 1 2 2 3 3 4 5 5 6 6 7 7 8 8 8 8 9 8 8 9 11 12 13 14 15 18 20 21 24 22 22 25 26 27 30 32 32 27
25 26 27 29 31 31 28 27 26 24 22 19 17 16 15 12 11 10 8 7 6 6 6 6 6 6 6 6 5 5 5 5 5 5 4 3 4 4 4 4 4 4 3 3 3 2 2 1 2 2 3 4 4 5 6 6 7 7 8 9 8 9 9 9 10 10 10 12 13 14 16 16 19 21 22 23 22 21 23 24 24 28 32 33 28
24 25 27 28 29 29 28 26 26 25 23 21 19 18 16 14 12 11 9 8 7 7 7 7 7 7 7 7 6 6 5 5 6 6 5 3 3 3 4 4 4 4 4 4 3 3 2 2 2 2 3 3 4 4 5 6 7 8 9 10 10 10 10 9 10 10 11 12 13 14 16 16 17 19 19 20 21 21 23 25 25 28 31 31 29
23 25 26 26 26 27 27 26 26 25 23 21 20 18 17 16 14 12 11 9 9 8 8 7 7 8 8 7 7 7 6 6 7 6 6 5 3 3 3 4 4 5 5 4 4 4 3 3 3 3 3 3 3 3 4 4 6 7 9 10 10 9 9 9 9 10 11 12 13 13 14 16 18 17 18 21 22 22 23 23 23 25 26 22 20
22 23 24 24 24 25 26 25 25 24 23 22 20 19 18 17 15 14 12 10 10 9 8 8 8 9 9 8 8 7 6 7 7 6 8 9 7 5 4 3 3 4 5 5 5 4 4 4 4 3 3 3 3 3 3 3 5 7 8 9 9 8 7 7 7 9 10 12 14 14 14 16 19 18 19 21 22 22 23 22 21 22 23 20 19
20 21 21 22 22 23 24 24 24 24 23 21 20 19 19 18 16 14 12 11 11 10 9 9 9 9 9 9 8 8 7 8 8 7 9 13 11 8 5 4 4 4 5 6 6 5 5 5 5 4 4 4 4 3 3 4 5 6 8 9 9 8 6 5 6 8 10 12 14 15 15 16 19 19 19 19 21 22 21 22 22 22 24 24 25
18 19 19 20 20 21 22 23 23 23 22 21 20 20 19 18 16 15 13 12 12 10 10 10 9 9 9 8 9 8 8 8 9 9 10 13 15 13 9 6 6 5 5 6 6 6 7 6 6 5 5 5 5 5 5 6 7 6 6 7 8 9 8 6 6 7 9 11 14 16 16 15 17 19 18 17 18 19 19 21 23 24 26 27 29
16 16 17 18 18 19 21 21 21 22 21 21 21 20 19 18 17 15 14 13 12 11 10 11 11 10 9 9 9 9 9 9 10 11 11 12 15 18 15 10 8 7 6 6 7 7 8 8 7 6 6 6 6 6 6 8 8 8 7 7 8 9 9 8 7 8 10 12 14 16 16 16 16 17 17 16 16 17 18 20 22 23 26 28 30
12 13 14 15 16 18 19 19 20 20 21 21 21 20 19 18 17 16 15 14 12 12 12 12 12 11 10 10 11 10 9 10 11 12 12 11 14 20 19 15 12 10 8 8 7 8 9 9 9 8 7 7 7 7 7 8 9 9 9 10 9 9 10 9 8 8 11 12 13 14 14 14 14 14 14 13 14 17 18 19 21 21 24 26 29
10 10 11 12 14 16 17 18 19 20 20 21 21 20 19 17 16 15 15 14 13 13 13 12 12 12 12 12 13 12 10 11 12 13 13 10 13 20 21 19 16 13 11 10 9 8 9 9 9 10 9 8 8 8 7 7 8 9 9 11 11 10 11 10 8 8 11 12 12 12 12 13 13 13 12 11 12 15 17 19 21 22 22 20 19
12 11 11 11 12 14 15 16 18 19 19 20 19 19 17 15 15 14 14 15 14 13 13 13 13 13 12 12 12 12 10 10 12 15 14 11 12 17 20 20 19 16 14 13 11 10 9 9 9 10 10 9 9 8 7 8 8 8 9 11 13 13 13 12 10 10 12 13 12 11 11 12 12 12 12 11 12 14 15 18 20 20 21 18 15
13 13 12 12 12 13 14 15 16 17 18 18 18 17 15 14 14 14 14 15 14 13 13 13 14 13 12 12 12 11 11 10 11 15 16 14 13 15 18 20 20 18 16 14 13 12 10 9 9 10 10 9 9 9 8 7 7 7 9 11 13 14 14 14 14 15 17 16 14 13 11 11 11 11 12 12 12 13 14 16 17 18 20 21 20
13 13 13 12 12 12 12 13 14 14 15 15 15 14 14 13 13 13 14 14 14 14 13 14 14 14 13 13 13 13 14 12 11 14 16 18 16 14 17 19 20 19 17 16 15 14 12 11 10 9 10 8 8 8 7 6 7 9 10 11 13 14 14 14 16 19 20 19 17 16 14 13 12 12 11 12 12 13 14 15 16 17 17 20 23
13 13 12 12 12 11 10 10 10 11 12 13 13 13 13 13 13 13 14 14 14 14 14 14 15 15 15 15 15 16 17 17 15 14 15 19 19 15 16 19 19 20 19 17 16 15 14 12 10 10 10 8 7 6 5 5 9 10 10 11 11 11 13 15 18 19 19 19 18 16 15 14 13 12 11 12 13 14 15 16 16 17 17 18 22
14 13 12 12 11 11 10 9 9 10 10 11 12 12 12 12 12 13 13 13 13 14 14 15 16 17 16 16 17 17 17 18 17 15 14 17 18 17 17 18 18 19 20 17 16 15 15 14 12 11 10 9 9 7 5 6 10 11 10 10 10 11 14 17 18 18 18 17 17 17 16 15 14 13 13 14 15 16 17 18 18 17 18 19 20
13 13 13 13 12 11 11 10 10 10 10 10 11 12 11 12 12 12 13 13 14 15 16 16 17 18 18 17 16 16 15 14 15 14 13 14 15 15 16 19 19 19 19 17 15 16 16 16 14 12 11 10 10 9 7 7 11 13 13 13 14 15 16 16 15 15 16 16 16 17 16 15 15 16 16 17 18 19 19 19 19 19 20 21 21
13 13 14 14 14 13 12 11 11 10 10 10 10 10 11 11 12 12 13 13 14 16 17 17 17 18 18 17 15 13 12 11 12 11 11 12 13 11 12 15 17 17 16 16 17 17 16 15 14 13 12 11 10 10 9 10 13 16 16 16 16 16 14 13 12 14 15 16 16 17 17 16 16 17 18 20 21 21 21 20 21 21 22 23 25
15 14 13 13 14 14 14 12 11 10 10 10 10 10 10 10 11 11 12 13 14 15 16 16 17 17 17 17 16 13 11 11 11 10 9 10 12 11 10 11 13 14 15 16 17 16 16 15 15 14 13 12 12 12 13 13 14 17 17 17 16 14 12 11 11 13 15 16 17 18 17 17 17 18 19 21 21 21 22 22 22 23 24 27 29
16 15 13 12 13 13 14 13 12 11 10 9 9 9 9 10 10 11 12 12 13 14 15 15 16 16 16 17 16 15 13 11 12 11 10 10 11 12 12 13 13 14 16 16 16 16 16 16 15 14 14 13 14 15 15 14 14 15 15 15 14 12 10 10 11 13 15 17 17 18 19 18 19 19 20 21 21 21 22 25 26 26 28 30 32
16 15 14 12 12 13 13 13 13 12 11 11 11 10 9 9 9 10 11 12 13 13 14 14 15 15 15 16 16 15 14 13 13 12 12 11 11 11 12 13 13 15 17 17 16 16 16 15 15 15 15 15 16 16 16 14 13 13 13 12 12 11 10 11 12 13 15 17 18 19 19 19 20 21 21 22 21 21 22 25 27 28 29 31 33
15 14 13 12 11 12 12 12 12 12 12 12 12 11 11 10 10 10 11 12 13 14 14 15 15 15 15 15 15 15 15 14 14 13 13 13 13 13 13 13 13 15 16 16 15 15 15 14 14 15 16 16 16 16 14 14 13 12 12 11 11 11 10 11 13 14 15 17 18 19 20 20 21 22 22 22 21 21 22 25 26 28 29 29 29
16 15 14 13 12 13 13 13 12 13 13 12 12 11 11 11 11 12 12 11 12 13 15 16 16 16 15 15 15 16 16 15 13 12 12 12 13 14 15 15 15 15 14 14 14 14 14 14 14 15 14 14 14 14 14 13 13 12 12 11 10 11 11 12 14 15 15 17 18 19 20 20 21 22 22 22 22 22 23 25 26 27 28 28 27
17 16 15 14 14 14 15 15 13 13 13 13 13 12 12 10 10 11 12 11 11 12 13 14 15 15 15 15 15 16 16 16 13 12 12 11 11 12 12 13 14 14 13 13 13 14 14 14 13 13 12 12 13 14 14 13 13 12 11 11 11 12 12 13 14 15 16 17 18 19 19 20 21 22 22 23 24 24 24 25 26 26 27 27 28
18 17 15 14 14 14 15 15 14 13 12 13 13 13 13 13 11 10 9 10 12 12 12 11 11 11 12 14 15 15 15 15 14 13 14 14 13 13 13 12 12 12 13 14 15 16 16 15 14 13 13 13 14 16 16 15 15 14 13 13 13 13 13 14 14 15 16 17 18 18 18 19 21 21 22 23 24 25 26 26 27 27 27 27 26
16 16 14 13 13 13 14 14 14 13 13 13 13 13 14 15 15 14 11 11 13 14 13 11 10 10 10 12 13 15 15 14 14 13 13 13 14 14 14 14 13 11 11 14 17 17 16 16 16 15 15 15 16 18 18 18 16 15 15 15 14 13 13 14 14 15 16 17 17 18 18 19 20 21 21 21 23 25 26 27 28 28 29 28 27
14 13 13 13 13 13 14 14 14 14 14 14 14 14 14 15 17 19 19 17 15 13 12 12 11 11 11 11 12 13 14 13 13 12 12 12 12 12 12 12 12 11 10 13 17 18 17 16 16 16 16 17 17 17 18 18 17 17 16 16 16 15 15 14 15 16 16 17 17 18 18 18 18 19 20 20 22 24 26 27 28 28 28 28 29
12 11 10 11 12 13 14 14 15 15 14 13 13 14 14 14 15 17 19 20 18 16 14 14 13 13 13 13 13 12 13 12 12 12 12 12 12 11 11 11 11 11 11 12 15 17 17 17 17 17 17 17 17 17 17 18 18 17 16 16 16 16 15 15 15 16 16 16 17 18 17 17 17 17 19 21 22 23 25 26 27 28 27 27 29
12 10 9 9 10 12 13 13 13 14 14 13 12 12 13 14 14 14 15 17 18 18 18 17 15 14 13 13 13 13 12 12 12 12 12 12 12 11 11 12 12 12 12 13 14 15 16 17 17 18 18 18 18 18 18 18 17 16 15 14 14 15 15 15 16 16 16 17 17 17 16 16 16 16 18 20 22 23 25 26 27 28 28 28 29
13 12 11 11 11 11 12 12 12 13 13 13 13 12 12 13 13 14 14 14 15 17 18 18 17 15 14 13 13 13 12 12 11 11 10 10 10 10 10 10 11 11 12 13 14 15 16 17 18 17 17 18 18 18 18 18 17 15 14 14 14 14 15 15 16 16 17 17 17 16 16 16 16 16 17 20 21 22 24 26 27 28 29 29 29
14 14 14 13 12 11 11 11 11 12 12 12 12 12 13 13 14 14 14 14 14 15 16 17 18 18 16 15 15 15 14 13 12 10 9 9 10 10 10 11 11 12 12 12 13 15 16 17 18 17 17 17 16 17 17 17 15 13 13 13 14 15 15 16 16 16 17 18 17 16 15 15 15 16 17 20 22 23 24 26 27 29 31 31 30
14 14 14 14 12 11 12 12 12 12 12 13 13 13 14 14 14 14 14 14 15 15 16 17 17 18 18 18 17 16 15 14 13 12 11 11 11 12 12 13 13 12 12 12 12 13 14 15 16 16 16 15 15 15 16 15 13 12 11 12 13 14 15 15 16 17 17 17 16 15 15 15 15 16 17 19 21 23 25 26 27 29 32 32 30
14 14 13 12 11 11 12 12 13 13 13 14 14 14 14 15 15 16 16 16 16 16 17 17 17 16 16 17 17 16 16 15 15 14 14 13 14 14 14 14 13 13 12 12 12 12 13 14 14 15 15 15 15 15 14 13 12 11 11 11 13 14 15 15 16 17 16 16 15 14 15 15 16 17 18 19 21 23 25 27 28 28 30 32 32
16 16 14 13 12 12 12 12 12 13 14 15 15 15 15 16 17 17 17 17 16 16 16 17 16 16 15 15 15 15 16 16 15 15 14 14 14 15 14 13 13 12 12 11 12 12 11 12 13 14 14 14 14 14 14 13 11 10 10 11 13 14 15 16 16 16 16 15 14 14 15 16 16 18 19 19 21 23 24 26 28 28 29 32 32
18 17 15 14 14 14 14 13 13 14 14 15 15 15 16 16 17 17 16 16 16 16 16 16 15 15 15 15 15 14 14 15 14 14 14 14 14 14 13 13 12 11 10 10 10 11 11 10 11 12 13 13 13 13 12 10 9 9 10 12 13 15 16 16 16 16 15 15 15 15 16 16 17 18 20 20 21 23 25 26 28 29 30 31 30
18 17 17 16 15 15 14 14 14 15 15 15 16 16 16 16 16 16 16 15 15 16 16 16 16 15 15 15 15 14 14 14 14 14 14 13 13 14 13 13 13 12 10 10 9 9 10 9 9 8 8 8 8 8 7 7 7 9 11 13 14 15 16 16 16 16 15 15 15 15 16 17 17 18 20 21 22 24 26 27 28 30 31 31 30
18 18 17 17 15 15 14 14 15 15 15 16 16 16 15 16 15 15 15 15 15 16 16 17 17 16 15 15 15 14 13 13 12 13 13 13 13 14 13 13 13 12 11 10 9 8 8 9 8 7 6 5 5 5 6 8 10 12 13 14 14 15 16 16 16 16 15 15 15 15 15 17 18 18 19 21 22 24 26 27 29 31 31 30 30
18 17 17 17 16 15 14 13 14 15 16 16 16 16 15 16 15 15 15 15 15 15 16 16 16 16 16 15 15 14 13 13 13 13 13 13 13 13 13 13 13 12 12 11 10 9 9 9 9 9 9 9 9 10 10 12 13 14 14 14 14 15 16 16 16 15 14 15 15 15 16 17 17 19 20 21 23 25 27 28 30 31 31 31 30
18 17 17 17 16 16 15 14 14 16 16 17 17 16 16 16 16 15 16 16 15 15 15 15 15 16 16 16 16 15 14 14 14 14 14 13 13 13 13 13 13 13 12 12 11 10 10 11 11 11 12 12 12 13 14 14 15 14 13 14 15 15 16 15 14 14 14 14 14 16 17 17 18 19 20 22 23 25 27 29 30 30 31 31 30
17 17 17 17 16 16 16 15 15 16 16 16 17 17 17 16 16 16 16 16 16 15 15 15 15 15 16 16 16 15 15 15 14 14 14 14 14 14 13 13 13 13 12 12 11 12 12 12 12 13 13 14 14 15 15 15 14 14 14 14 15 15 14 14 14 13 13 13 15 16 16 18 18 19 20 22 24 25 27 30 30 29 30 31 31
17 16 16 16 16 16 16 15 16 17 17 16 17 17 17 17 16 17 17 16 16 15 15 15 15 16 16 16 16 16 16 16 15 15 15 14 14 14 14 14 13 13 12 12 12 12 13 13 13 13 13 13 13 13 13 13 13 13 14 13 13 13 13 12 12 12 12 13 14 15 16 17 19 20 21 23 24 26 28 30 30 30 30 30 32
17 17 16 15 15 15 15 16 17 17 18 17 17 17 17 17 17 17 17 17 16 15 15 15 16 16 16 16 17 17 16 16 15 14 14 14 14 14 14 14 14 13 13 13 12 12 12 12 12 12 11 11 11 11 11 11 11 11 11 11 11 11 11 11 11 11 12 13 14 15 16 17 19 20 22 23 24 26 29 30 31 32 32 31 32
16 16 16 15 15 15 15 16 17 17 18 18 17 17 17 17 17 17 16 16 16 16 16 16 17 17 17 17 17 17 16 15 15 15 16 16 16 15 15 14 14 13 12 12 12 12 12 12 11 10 9 9 9 9 9 9 9 8 9 9 9 9 9 9 10 11 12 13 14 15 16 18 19 20 22 24 25 26 29 30 31 32 32 32 32
16 16 16 15 15 15 14 15 16 17 17 17 17 17 17 17 17 17 16 17 18 18 17 17 17 16 17 17 16 16 15 15 15 16 17 17 16 15 15 14 14 13 12 13 13 13 13 11 10 9 8 7 8 8 7 6 6 6 6 6 7 7 8 9 10 11 12 13 14 15 16 18 20 21 22 24 25 27 29 30 31 32 32 32 33
16 16 15 15 14 14 14 15 16 17 17 17 17 17 17 17 17 17 17 18 18 18 17 17 16 16 16 16 15 15 16 16 16 16 16 17 16 15 14 14 14 13 13 14 13 12 11 10 8 7 6 6 6 5 5 5 4 4 5 5 6 7 8 9 10 11 12 13 14 16 17 18 20 22 23 24 26 28 30 31 31 32 32 32 32
Wind_Direction
247 245 243 240 238 235 233 232 232 233 233 231 227 221 219 229 252 290 310 322 331 339 340 337 339 344 345 344 345 345 350 357 4 11 16 18 21 25 30 32 32 39 48 50 52 52 48 52 57 56 55 51 50 54 53 50 49 49 53 48 41 39 29 27 3 307 327 352 353 349 345 339 340 345 346 348 352 354 355 355 354 353 351 352 354
251 247 243 241 240 237 235 235 235 235 234 233 229 219 217 223 229 252 279 300 314 322 323 325 333 336 337 339 338 337 343 349 357 6 11 14 18 22 25 27 30 36 42 46 49 50 46 47 50 50 47 40 42 48 44 43 45 40 46 49 42 42 30 17 13 336 328 345 349 342 341 340 339 343 346 346 348 350 351 354 356 355 353 352 351
255 249 244 242 241 238 236 235 236 236 235 237 237 227 220 222 227 243 258 269 287 303 309 317 333 329 327 331 331 330 332 336 345 355 1 6 10 14 16 18 23 27 32 40 45 47 43 39 47 49 41 33 39 44 42 38 36 33 33 35 33 34 24 7 4 347 326 336 343 340 341 342 340 342 345 346 348 349 349 351 354 355 356 356 351
258 251 246 243 241 239 237 235 236 237 237 237 240 239 231 226 228 242 254 258 269 285 296 308 327 320 317 322 323 320 319 321 330 339 345 352 355 357 360 3 10 15 24 37 42 43 39 38 47 48 39 34 39 43 41 34 30 28 23 23 21 13 8 359 356 354 331 328 335 337 340 343 345 345 345 345 348 351 352 351 351 352 355 359 356
259 255 249 243 241 239 237 236 236 238 239 239 241 243 239 233 233 241 249 256 267 278 287 299 315 312 311 312 311 308 306 308 314 320 325 331 332 338 340 341 352 3 12 26 35 35 33 34 40 41 30 26 33 36 35 30 25 24 23 24 23 12 4 357 356 360 347 338 339 341 343 347 350 352 352 350 349 350 350 350 353 354 351 353 357
261 258 252 245 242 240 238 237 237 240 241 241 243 245 243 239 240 244 247 253 267 277 279 286 301 303 303 302 299 293 289 292 297 299 302 306 308 313 317 319 327 338 347 355 7 16 23 27 29 29 20 20 30 32 28 26 22 20 23 24 22 16 11 7 3 355 351 350 349 349 352 353 354 355 357 357 356 353 350 349 351 353 351 348 351
262 260 255 248 243 241 240 240 240 242 242 242 244 248 245 243 244 247 249 251 263 272 273 279 290 293 296 295 289 280 275 275 281 282 282 285 287 288 293 298 300 301 304 306 316 341 4 16 16 15 16 22 33 32 26 23 18 17 21 22 18 14 13 13 10 358 357 0 358 356 357 357 356 356 356 360 2 1 359 353 346 346 349 348 347
264 261 257 251 247 243 242 241 241 242 243 242 244 249 248 246 246 250 252 255 263 270 272 275 279 284 289 288 283 275 268 265 268 270 271 272 269 271 274 275 276 276 271 274 280 293 320 355 360 358 8 21 26 23 19 16 15 14 16 16 14 12 14 14 11 8 6 4 2 359 358 357 358 357 356 2 2 358 359 355 343 340 343 343 346
267 263 258 255 251 247 243 241 240 241 244 244 246 250 250 248 250 252 253 258 264 270 274 272 273 279 284 283 280 272 263 260 259 255 256 263 267 267 264 263 267 267 261 260 264 269 288 327 343 349 2 12 14 11 9 9 9 9 9 9 8 9 12 11 10 11 9 6 4 359 356 357 0 358 356 1 359 349 349 350 342 340 340 339 343
270 264 260 259 255 249 243 241 241 242 244 246 247 250 251 250 252 253 254 258 264 268 271 270 270 276 279 279 276 269 263 255 246 242 244 256 280 280 269 264 261 260 261 260 262 272 285 305 322 336 353 360 360 1 5 8 10 11 9 5 3 3 5 8 11 10 8 8 6 358 352 349 353 357 353 352 351 346 347 347 339 339 342 340 340
273 267 265 263 257 249 245 243 243 243 244 245 247 250 251 251 253 254 255 257 262 266 269 270 272 274 276 276 273 266 261 250 243 247 252 259 292 309 287 275 264 258 263 263 264 277 283 290 306 314 326 336 339 348 358 5 10 12 9 6 2 357 355 0 8 8 5 3 360 356 349 339 342 351 350 347 347 344 342 341 336 335 340 337 329
278 272 269 264 257 251 247 245 245 246 244 244 247 250 251 252 254 255 257 260 264 268 272 274 276 274 271 271 269 265 261 250 239 235 239 248 272 309 309 297 278 262 263 267 268 274 277 282 293 298 304 311 311 321 336 346 358 2 2 3 2 356 349 349 357 2 1 357 351 348 345 337 335 343 347 344 340 337 334 334 331 329 328 321 307
285 278 273 266 260 254 250 248 248 248 246 245 247 250 251 254 256 258 260 261 264 270 276 281 283 280 274 270 267 264 262 253 239 226 229 239 252 277 304 320 313 286 271 270 270 270 274 278 283 288 291 295 298 298 300 313 330 343 351 357 358 357 349 337 344 354 358 355 346 340 341 336 330 335 345 342 333 330 328 324 325 324 320 315 306
293 285 279 271 265 258 254 252 251 251 249 247 247 249 252 256 258 259 259 259 265 272 280 284 286 287 283 277 271 266 264 257 244 232 232 237 242 254 276 300 316 317 298 281 275 273 274 277 278 284 285 285 292 293 290 299 309 319 339 350 353 354 347 331 332 344 354 354 341 333 334 331 326 330 340 339 329 324 321 318 321 321 317 314 310
303 294 286 278 271 264 259 257 255 254 252 251 250 251 253 257 259 259 258 260 266 271 276 280 283 285 285 282 278 273 266 260 249 235 231 237 240 246 257 274 292 309 312 300 289 279 276 280 278 277 280 279 283 287 288 298 305 313 334 344 344 348 342 328 324 336 348 348 336 327 326 327 329 331 334 335 324 316 315 316 317 317 316 316 318
312 304 296 288 280 273 267 263 262 261 258 256 254 253 255 258 261 261 261 263 266 268 272 278 281 283 286 287 286 280 266 257 254 241 228 235 246 245 248 259 271 288 304 306 302 290 278 278 278 276 276 274 276 280 285 297 306 313 331 338 337 342 339 326 319 331 340 337 328 322 317 318 321 320 322 325 316 310 313 315 317 322 323 322 324
322 316 307 299 290 283 277 272 270 267 263 259 257 257 258 262 265 264 263 264 267 270 273 275 277 279 285 291 291 288 273 256 255 246 228 233 256 251 246 252 260 271 287 295 302 302 287 277 276 276 275 272 270 274 277 284 294 306 322 329 328 332 336 328 317 321 329 328 325 321 314 312 311 308 310 314 310 312 316 318 324 329 326 325 324
331 323 313 304 297 290 284 279 274 270 266 263 262 263 265 269 270 267 264 266 270 272 272 272 275 278 283 289 289 288 279 259 252 247 230 228 259 259 250 251 256 263 276 284 291 301 298 288 279 274 274 273 268 268 270 270 276 297 316 318 316 322 329 326 318 318 324 327 327 326 321 316 312 310 312 315 316 319 319 320 326 325 319 317 313
341 335 325 316 307 297 290 283 278 273 271 269 267 269 274 276 274 269 266 268 271 272 271 271 274 277 280 284 283 283 283 269 256 251 236 227 248 262 254 250 253 258 267 276 284 293 298 296 287 276 273 271 268 269 267 259 266 295 308 303 304 314 321 322 323 327 328 328 329 330 328 322 316 313 315 318 321 322 320 321 323 320 314 311 309
346 343 337 334 327 315 301 289 282 277 275 275 275 277 280 280 277 273 270 271 271 271 271 271 274 276 278 280 281 282 287 285 272 260 245 233 238 255 257 250 249 256 263 270 279 286 292 294 292 282 272 269 272 270 258 251 271 289 290 286 295 309 315 317 322 325 325 325 327 329 329 325 319 317 316 318 323 325 327 327 325 322 317 309 307
341 339 339 340 338 333 323 306 294 286 283 283 283 283 284 282 279 277 275 273 272 271 273 274 275 278 279 280 282 285 289 291 283 268 254 242 236 246 259 255 252 256 260 265 273 280 288 293 292 282 271 269 275 270 255 263 276 275 273 280 293 303 305 309 315 318 318 320 323 326 327 324 320 319 319 321 326 330 331 331 328 325 319 310 307
335 332 333 335 333 332 329 318 310 303 295 293 289 288 288 284 281 281 278 276 274 273 276 279 279 281 281 281 284 286 288 289 282 269 259 248 239 244 257 259 256 256 255 258 269 280 288 292 289 280 273 269 269 267 260 268 271 267 270 280 285 287 293 301 309 312 314 318 321 324 327 327 324 324 325 326 330 333 332 330 328 325 320 314 309
332 328 328 328 327 326 323 318 314 310 305 302 298 296 294 289 286 285 281 279 278 277 280 283 282 282 284 284 286 286 285 287 282 269 259 249 241 245 256 257 253 251 251 257 272 284 289 289 285 279 274 268 266 266 262 261 264 267 270 274 276 284 293 299 305 309 313 319 323 323 327 331 329 328 330 331 332 333 332 329 326 325 322 320 317
335 332 329 326 326 326 325 322 319 315 311 309 305 303 301 296 292 289 284 280 279 279 283 287 285 285 288 291 292 288 284 289 288 276 260 247 240 241 253 255 251 250 256 266 277 284 287 286 282 278 273 268 263 262 260 259 260 265 272 277 283 289 294 297 304 311 315 321 325 325 327 333 332 330 331 332 331 331 331 328 325 326 327 325 324
339 338 333 329 328 328 328 327 326 323 320 317 315 314 312 306 300 295 290 285 283 284 289 291 290 290 293 298 302 301 294 291 290 285 269 252 242 239 245 252 256 259 265 271 278 283 285 284 279 274 270 269 265 264 268 267 263 266 273 279 284 288 289 294 305 313 316 321 325 325 327 330 330 329 330 329 329 331 331 328 326 329 332 330 328
341 340 337 334 335 336 335 335 335 334 332 330 327 325 322 317 312 306 298 292 290 291 293 294 293 293 295 299 305 308 304 296 291 288 278 262 253 251 251 254 261 267 272 274 277 280 283 281 277 271 269 269 268 271 275 275 270 269 272 275 279 282 284 293 306 312 315 321 323 322 324 327 326 326 328 328 329 332 334 332 330 332 335 335 332
343 343 340 339 342 344 341 340 340 341 341 339 336 332 328 323 318 312 305 298 294 293 294 294 292 292 294 299 303 304 302 297 292 289 282 271 263 262 264 265 266 268 272 276 279 280 280 278 273 268 266 267 270 274 276 276 274 272 270 272 275 278 282 293 303 308 314 319 319 318 321 322 322 325 328 328 329 333 335 334 333 334 337 337 333
348 347 345 342 340 337 335 335 337 338 336 334 332 331 328 323 317 313 308 303 298 296 294 292 292 292 294 298 301 302 301 298 293 289 284 276 267 264 266 268 268 267 270 275 279 279 278 275 268 263 262 266 271 274 275 275 275 274 272 271 273 277 283 291 298 305 313 316 315 315 317 319 321 324 326 326 328 332 336 335 334 333 335 336 332
350 352 350 347 342 337 335 336 335 333 333 332 329 326 324 322 317 314 314 313 309 305 299 294 294 296 298 298 301 301 302 301 297 289 282 275 268 266 267 268 268 269 272 276 277 275 274 274 270 264 264 268 272 276 277 277 276 275 274 275 277 282 286 291 298 306 312 313 313 314 316 318 320 323 325 326 327 332 334 335 334 333 334 334 329
348 352 352 351 349 347 345 343 339 336 337 338 335 330 327 323 317 315 316 316 312 308 303 298 295 297 300 303 306 306 305 303 298 287 277 271 267 267 270 270 270 269 268 267 266 265 266 270 269 265 264 270 278 284 286 284 281 277 276 278 283 288 291 295 303 309 311 311 313 315 316 317 318 322 325 326 326 329 332 333 334 333 333 331 326
343 346 348 349 350 349 348 348 349 347 345 344 341 337 333 328 324 322 319 313 310 312 313 309 302 300 303 306 309 312 313 313 308 296 285 278 273 270 270 270 270 268 264 260 257 256 257 260 263 264 266 272 282 290 293 291 286 283 285 287 287 288 292 299 305 308 308 311 314 315 315 316 317 320 323 324 324 327 329 332 334 333 332 329 323
339 341 345 347 349 350 349 349 351 351 348 346 344 342 340 334 329 325 321 317 316 318 319 318 313 308 307 307 308 310 311 314 315 309 299 290 285 281 276 273 272 271 265 256 250 251 252 254 258 263 266 271 280 289 292 292 289 288 291 293 292 293 296 302 305 306 307 311 314 314 315 315 316 317 320 322 323 325 327 330 333 332 330 328 323
335 339 344 347 348 348 346 344 343 341 339 339 339 340 342 340 334 327 324 324 326 327 327 327 326 321 315 312 313 314 310 307 306 307 305 301 296 290 284 278 272 270 267 256 248 248 252 255 259 263 266 271 281 290 292 290 289 289 291 292 293 297 301 302 303 305 308 311 312 313 314 314 314 315 318 321 323 323 325 328 330 330 328 326 323
332 335 340 343 342 341 340 341 340 337 334 333 334 336 337 339 338 334 331 332 334 336 337 337 336 333 327 323 324 326 321 313 307 308 310 309 305 298 291 285 277 271 268 264 256 254 256 259 262 267 271 276 284 291 292 291 290 289 290 291 293 297 300 301 301 304 308 310 311 312 312 313 314 317 319 321 322 323 324 327 328 327 325 323 321
334 332 332 333 333 334 336 341 343 343 341 339 337 336 335 335 337 338 337 335 333 333 334 335 336 336 334 331 330 331 327 318 312 310 312 313 313 310 302 296 289 280 274 271 268 265 265 265 267 271 274 279 286 290 292 293 293 292 292 294 297 297 298 299 301 304 307 309 310 312 312 312 315 319 320 320 321 322 324 326 326 324 323 321 318
340 337 335 333 332 332 335 340 345 347 348 346 343 340 338 338 338 339 337 335 332 331 331 332 333 333 333 333 333 332 330 327 325 324 323 321 321 322 321 318 311 301 291 284 279 275 271 270 272 275 278 281 285 289 292 295 296 295 294 294 296 298 298 301 303 305 307 309 310 311 312 312 316 321 321 320 320 321 322 323 324 323 321 320 316
344 341 339 337 336 335 335 338 344 348 349 349 348 346 344 342 341 339 338 336 335 333 332 332 333 334 335 337 337 334 330 329 329 328 325 320 318 321 325 328 327 322 315 305 296 287 279 273 273 275 279 282 285 289 293 297 299 299 296 294 295 298 300 302 305 306 308 309 310 310 311 312 317 323 324 320 320 322 323 323 323 322 322 320 316
348 344 342 339 337 338 337 338 344 347 346 345 346 345 344 342 341 341 340 339 337 335 333 334 335 336 337 337 337 336 333 331 330 330 328 326 326 327 326 323 322 324 325 321 311 298 288 282 279 277 279 282 286 290 294 295 295 297 296 294 296 298 300 303 306 306 308 309 308 308 310 314 320 325 324 320 320 322 323 323 323 322 321 319 316
349 347 344 339 337 338 339 340 343 345 344 344 346 345 344 342 341 340 339 337 335 334 334 333 333 335 337 338 339 339 338 337 338 339 337 334 334 334 331 325 318 314 320 328 327 313 296 287 283 281 281 283 287 291 293 292 290 290 292 293 296 300 302 305 306 307 308 309 308 308 312 317 322 324 322 320 321 322 322 322 322 321 317 314 313
347 346 343 340 337 335 335 337 341 342 342 344 344 343 342 340 338 337 336 335 335 336 337 337 337 339 341 342 342 340 337 336 336 337 335 333 333 335 337 336 330 319 315 321 332 332 318 299 288 285 285 288 293 294 292 287 282 282 288 294 299 302 305 306 307 309 310 310 309 311 314 318 321 321 320 321 323 323 322 321 321 320 316 312 311
342 341 340 338 335 331 332 336 339 339 339 338 338 338 338 337 336 335 335 336 337 338 338 337 338 341 341 339 338 335 331 330 331 330 331 331 331 332 336 339 341 337 328 322 327 335 336 324 306 294 289 291 294 293 287 280 278 284 294 301 302 303 305 307 308 309 310 309 309 311 314 317 319 319 319 322 323 323 323 322 321 320 317 314 313
340 338 337 337 333 331 333 336 337 336 336 336 337 338 337 337 337 337 336 336 337 337 336 335 335 337 337 336 334 331 326 324 324 326 328 329 328 330 333 336 339 341 339 333 329 330 333 334 329 315 300 293 292 290 284 281 287 295 300 302 303 303 304 306 308 310 310 308 307 309 312 315 317 317 319 322 323 324 324 324 323 320 318 316 317
338 336 335 334 331 329 330 331 331 332 334 335 337 338 337 337 338 339 339 339 338 337 336 334 333 334 336 336 337 336 334 330 328 327 329 330 329 330 331 333 334 335 334 332 331 328 324 323 324 322 316 308 299 295 292 293 296 298 299 299 300 300 302 304 308 310 308 304 304 307 310 313 316 317 319 322 324 325 325 324 322 321 319 318 319
335 333 332 331 328 325 325 327 328 329 330 331 332 333 335 336 336 336 337 338 339 339 338 337 337 337 337 338 339 339 339 340 338 334 332 332 331 331 331 331 332 331 329 328 327 323 317 313 309 306 304 301 296 295 294 294 295 294 294 294 295 295 299 303 306 305 303 301 304 308 310 313 316 318 321 324 326 325 325 323 322 320 320 319 319
333 330 329 329 327 323 323 327 329 328 327 328 329 332 335 337 337 337 338 337 337 338 338 337 338 339 338 338 338 338 337 338 338 335 334 332 330 330 331 329 328 327 327 326 324 320 316 312 306 300 296 294 293 293 293 292 292 291 289 289 289 291 295 299 298 297 299 301 304 308 310 313 316 319 322 325 327 325 323 321 320 320 320 319 318
331 328 326 326 324 322 323 328 330 329 328 328 329 331 335 337 338 338 338 338 337 337 336 337 339 339 338 339 339 338 337 336 334 333 332 331 330 330 329 328 327 326 326 325 323 320 316 312 306 301 296 292 291 291 290 288 288 285 282 283 284 285 288 290 289 291 296 299 303 307 310 312 316 321 323 325 326 324 321 320 320 320 319 318 316
329 326 324 323 321 320 322 327 329 329 329 328 328 330 333 335 335 335 334 335 335 334 334 335 336 335 335 336 335 334 334 333 332 331 331 330 330 331 329 328 327 326 324 323 322 319 316 311 306 300 296 292 290 290 288 285 283 278 276 276 276 277 278 280 283 289 295 299 302 307 309 312 318 322 324 325 325 323 321 321 321 321 319 317 315
326 324 323 322 320 320 323 327 329 330 330 329 329 328 329 330 331 332 333 334 335 335 335 335 334 332 332 331 331 331 331 330 329 331 331 331 330 330 327 326 325 322 319 320 320 318 316 313 307 302 298 294 292 291 288 285 281 276 273 271 269 269 274 278 283 290 297 301 305 308 310 314 319 322 323 324 324 322 320 321 322 322 321 319 316
325 324 323 322 320 321 325 328 329 329 330 330 328 327 328 329 330 332 333 334 333 333 333 332 332 332 331 330 330 331 331 330 330 331 331 329 327 325 323 322 322 321 319 320 320 319 317 314 310 307 305 300 296 294 292 288 283 275 269 266 266 270 277 284 290 297 303 304 306 309 312 316 319 321 322 323 323 321 321 322 322 322 321 319 317
323 323 323 321 320 322 325 328 328 328 330 331 329 328 329 329 328 330 331 330 329 330 331 331 331 331 331 332 334 334 332 331 330 331 331 329 327 323 320 318 318 318 318 318 318 318 318 315 313 313 312 307 303 303 300 295 286 273 266 267 271 276 284 292 299 304 305 304 306 311 315 318 319 321 322 324 323 323 323 323 322 321 320 318 317
323 325 324 322 321 322 324 327 329 329 330 330 329 329 329 329 328 328 328 327 328 329 329 329 329 328 328 330 332 330 329 329 329 330 331 331 328 325 322 320 318 318 317 316 316 318 318 317 315 312 310 307 308 306 301 294 286 276 274 278 281 286 294 300 304 304 303 304 309 315 318 319 320 322 324 325 325 324 324 324 323 321 319 317 316